Погода в Ростоке

Германия     54°05′13″N   12°06′16″E
темп.,
°C
ветер,
м/с
пор.,
м/с
влажн.,
%
обл.,
%
осадки,
мм/ч
давл.,
гПа
погр.,
м
12 мая, ср
ср1223:00+13сз4699100 5.6 1005326
02:00+10зсз3699100 7.2 1004212
05:00+10з4799100 0.5 1005295
08:00+11з41098100 0.6 1006438
11:00+12з5894100 0.0 1007482
14:00+14зсз5781100 0.0 1008637
17:00+14ссз4686100 0.0 1009449
20:00+11сз489299 0.0 1009354
13 мая, чт
чт1323:00+11ссз3895100 0.0 1009318
02:00+10с4892100 0.0 1008375
05:00+10с51092100 0.2 1006497
08:00+9ссз51096100 0.6 1005476
11:00+9ссз51097100 0.3 1004470
14:00+11с5797100 0.3 1003355
17:00+12с459392 0.0 1002303
20:00+10с469673 0.0 1001212
14 мая, пт
пт1423:00+9с3687100 0.0 1001174
02:00+9с118475 0.0 100020
05:00+7з119054 0.0 100027
08:00+10зюз228651 0.0 1001254
11:00+12зюз3383100 0.0 1002574
14:00+12зюз4585100 0.1 1003721
17:00+11зюз6991100 0.1 1003555
20:00+9зюз61092100 0.2 1004500
15 мая, сб
сб1523:00+8зюз51095100 1.0 1005452
02:00+8зюз5996100 1.6 1006487
05:00+6зюз499758 0.1 1006369
08:00+8зюз489020 0.1 1007385
11:00+12зюз56680 0.0 1008971
14:00+13зюз457592 0.1 10081008
17:00+15зюз336699 0.1 10071384
20:00+12ссв238196 0.1 100760
16 мая, вс
вс1623:00+10в2390100 0.4 100860
02:00+10в359677 1.4 1008116
05:00+6юв239711 0.3 100838
08:00+10юз119194 0.3 1008198
11:00+13зсз2181100 0.6 1009685
14:00+14сз3381100 3.1 1009707
17:00+14ссз437728 0.4 1009730
20:00+11с248990 0.4 1008120